Fort Collins, CO

4:49 PM MDT on March 22, 2017 (GMT -0600)
Fort Collins-Loveland Municipal

Weather History for KFNL - April, 2013

Change the Weather History Date:

Tuesday, April 9, 2013

  Actual Average Record
Temperature  
Mean Temperature 20 °F -  
Max Temperature 26 °F - 78 °F (2002)
Min Temperature 12 °F - 12 °F (2013)
Degree Days  
Heating Degree Days 45    
Month to date heating degree days  
Cooling Degree Days 0    
Month to date cooling degree days  
Moisture  
Dew Point 12 °F    
Average Humidity 72    
Maximum Humidity 86    
Minimum Humidity 58    
Precipitation  
Precipitation 0.00 in - 0.42 in (2004)
Sea Level Pressure  
Sea Level Pressure 30.06 in    
Wind  
Wind Speed 21 mph (North)    
Max Wind Speed 28 mph    
Max Gust Speed 34 mph    
Visibility 7 miles    
Events      
T = Trace of Precipitation, MM = Missing Value Source: NWS Daily Summary

Daily Weather History Graph

Daily Weather History Graph

Search for Another Location

Airport or City:

Trip Planner

Search our weather history database for the weather conditions in past years. The results will help you decide how hot, cold, wet, or windy it might be!

Date:

Astronomy

Apr. 09, 2013 Rise Set
Actual Time 6:30 AM MDT 7:33 PM MDT
Civil Twilight 6:02 AM MDT 8:01 PM MDT
Nautical Twilight 5:29 AM MDT 8:34 PM MDT
Astronomical Twilight 4:54 AM MDT 9:09 PM MDT
Moon 5:54 AM MDT (4/9) 7:11 PM MDT (4/9)
Length of Visible Light 13h 58m
Length of Day
13h 02m
Waning Crescent, 0% of the Moon is Illuminated
Apr 9
Waning Crescent
Apr 10
New
Apr 18
First Quarter
Apr 25
Full
May 2
Last Quarter

Hourly Weather History & Observations

Time (MDT) Temp. Windchill Dew Point Humidity Pressure Visibility Wind Dir Wind Speed Gust Speed Precip Events Conditions
12:15 AM 26.6 °F 12.0 °F 21.2 °F 80% 29.86 in 3.0 mi North 23.0 mph 31.1 mph N/A   Overcast
12:35 AM 24.8 °F 10.0 °F 19.4 °F 80% 29.86 in 9.0 mi North 21.9 mph 29.9 mph N/A   Overcast
12:55 AM 24.8 °F 9.6 °F 19.4 °F 80% 29.86 in 4.0 mi North 23.0 mph 28.8 mph N/A   Overcast
1:15 AM 24.8 °F 9.6 °F 17.6 °F 74% 29.86 in 10.0 mi North 23.0 mph 27.6 mph N/A   Overcast
1:35 AM 24.8 °F 10.0 °F 15.8 °F 69% 29.88 in 10.0 mi North 21.9 mph - N/A   Overcast
1:55 AM 23.0 °F 8.3 °F 14.0 °F 68% 29.90 in 10.0 mi NNE 19.6 mph - N/A   Overcast
2:15 AM 23.0 °F 7.6 °F 14.0 °F 68% 29.91 in 10.0 mi NNE 21.9 mph - N/A   Overcast
2:35 AM 23.0 °F 6.3 °F 14.0 °F 68% 29.92 in 10.0 mi North 26.5 mph 32.2 mph N/A   Overcast
2:55 AM 23.0 °F 6.6 °F 12.2 °F 63% 29.91 in 10.0 mi North 25.3 mph 34.5 mph N/A   Overcast
3:15 AM 23.0 °F 6.0 °F 12.2 °F 63% 29.90 in 10.0 mi North 27.6 mph 33.4 mph N/A   Overcast
3:35 AM 23.0 °F 6.6 °F 14.0 °F 68% 29.93 in 10.0 mi North 25.3 mph 29.9 mph N/A   Overcast
3:55 AM 21.2 °F 4.5 °F 12.2 °F 68% 29.95 in 9.0 mi North 24.2 mph 33.4 mph N/A   Overcast
4:15 AM 21.2 °F 4.5 °F 12.2 °F 68% 29.95 in 1.8 mi North 24.2 mph 31.1 mph N/A   Overcast
4:35 AM 19.4 °F 2.1 °F 12.2 °F 74% 29.96 in 1.2 mi North 24.2 mph 31.1 mph N/A   Overcast
4:55 AM 19.4 °F 2.5 °F 14.0 °F 80% 30.00 in 2.5 mi North 23.0 mph 29.9 mph N/A   Overcast
5:15 AM 19.4 °F 1.4 °F 14.0 °F 80% 29.97 in 5.0 mi North 26.5 mph 33.4 mph N/A   Overcast
5:35 AM 19.4 °F 1.8 °F 12.2 °F 74% 29.99 in 9.0 mi North 25.3 mph 28.8 mph N/A   Overcast
5:55 AM 19.4 °F 2.1 °F 12.2 °F 74% 30.00 in 8.0 mi North 24.2 mph 32.2 mph N/A   Overcast
6:15 AM 19.4 °F 2.1 °F 10.4 °F 68% 30.00 in 8.0 mi North 24.2 mph 27.6 mph N/A   Overcast
6:35 AM 19.4 °F 3.6 °F 10.4 °F 68% 30.01 in 10.0 mi North 19.6 mph 28.8 mph N/A   Overcast
6:55 AM 19.4 °F 4.1 °F 10.4 °F 68% 30.01 in 10.0 mi North 18.4 mph 28.8 mph N/A   Overcast
7:55 AM 21.2 °F 5.6 °F 8.6 °F 58% 30.06 in 10.0 mi North 20.7 mph - N/A   Overcast
8:15 AM 21.2 °F 4.9 °F 8.6 °F 58% 30.07 in 10.0 mi North 23.0 mph 26.5 mph N/A   Overcast
8:35 AM 19.4 °F 1.8 °F 8.6 °F 63% 30.05 in 9.0 mi North 25.3 mph 28.8 mph N/A   Overcast
9:15 AM 17.6 °F 1.7 °F 10.4 °F 73% 30.07 in 1.8 mi North 18.4 mph 26.5 mph N/A   Overcast
9:35 AM 17.6 °F 1.7 °F 10.4 °F 73% 30.07 in 1.8 mi North 18.4 mph - N/A   Overcast
9:55 AM 17.6 °F 1.7 °F 12.2 °F 79% 30.07 in 3.0 mi North 18.4 mph - N/A   Overcast
10:15 AM 17.6 °F 2.2 °F 12.2 °F 79% 30.07 in 1.8 mi North 17.3 mph 23.0 mph N/A   Overcast
10:35 AM 19.4 °F 6.0 °F 14.0 °F 80% 30.09 in 2.0 mi North 13.8 mph - N/A   Overcast
10:55 AM 19.4 °F 4.5 °F 14.0 °F 80% 30.08 in 1.2 mi North 17.3 mph - N/A   Overcast
11:15 AM 17.6 °F 1.7 °F 14.0 °F 86% 30.10 in 1.0 mi North 18.4 mph - N/A   Overcast
11:35 AM 17.6 °F 1.3 °F 12.2 °F 79% 30.08 in 1.0 mi NNE 19.6 mph - N/A   Overcast
11:55 AM 17.6 °F 0.9 °F 14.0 °F 86% 30.09 in 1.2 mi North 20.7 mph - N/A   Overcast
12:15 PM 17.6 °F 1.3 °F 14.0 °F 86% 30.07 in 2.0 mi North 19.6 mph - N/A   Overcast
12:35 PM 17.6 °F 1.7 °F 14.0 °F 86% 30.08 in 5.0 mi North 18.4 mph - N/A   Overcast
12:55 PM 19.4 °F 5.0 °F 15.8 °F 86% 30.08 in 3.0 mi North 16.1 mph - N/A   Overcast
1:15 PM 21.2 °F 6.8 °F 15.8 °F 80% 30.08 in 9.0 mi North 17.3 mph 23.0 mph N/A   Overcast
1:35 PM 21.2 °F 7.3 °F 15.8 °F 80% 30.07 in 5.0 mi North 16.1 mph 21.9 mph N/A   Overcast
2:15 PM 21.2 °F 6.8 °F 12.2 °F 68% 30.08 in 7.0 mi NNE 17.3 mph - N/A   Mostly Cloudy
2:35 PM 19.4 °F 5.0 °F 12.2 °F 74% 30.09 in 2.5 mi NNE 16.1 mph 20.7 mph N/A   Overcast
2:55 PM 19.4 °F 4.1 °F 14.0 °F 80% 30.08 in 6.0 mi NNE 18.4 mph 23.0 mph N/A   Overcast
3:35 PM 19.4 °F 3.2 °F 12.2 °F 74% 30.08 in 2.0 mi North 20.7 mph - N/A   Overcast
3:55 PM 19.4 °F 3.6 °F 12.2 °F 74% 30.09 in 10.0 mi North 19.6 mph - N/A   Overcast
4:15 PM 19.4 °F 4.1 °F 12.2 °F 74% 30.10 in 10.0 mi North 18.4 mph - N/A   Overcast
4:35 PM 19.4 °F 4.5 °F 10.4 °F 68% 30.10 in 10.0 mi North 17.3 mph - N/A   Overcast
5:15 PM 17.6 °F 1.7 °F 12.2 °F 79% 30.10 in 4.0 mi North 18.4 mph 24.2 mph N/A   Overcast
5:35 PM 17.6 °F 2.2 °F 12.2 °F 79% 30.11 in 10.0 mi North 17.3 mph - N/A   Mostly Cloudy
5:55 PM 17.6 °F 2.7 °F 10.4 °F 73% 30.13 in 10.0 mi NNE 16.1 mph - N/A   Overcast
6:15 PM 19.4 °F 4.5 °F 10.4 °F 68% 30.13 in 10.0 mi NNE 17.3 mph 21.9 mph N/A   Overcast
6:35 PM 17.6 °F 3.7 °F 8.6 °F 68% 30.14 in 10.0 mi NNE 13.8 mph - N/A   Overcast
6:55 PM 17.6 °F 2.2 °F 8.6 °F 68% 30.15 in 10.0 mi NNE 17.3 mph - N/A   Overcast
7:15 PM 17.6 °F 3.2 °F 8.6 °F 68% 30.15 in 10.0 mi North 15.0 mph - N/A   Overcast
7:35 PM 17.6 °F 2.7 °F 8.6 °F 68% 30.15 in 10.0 mi North 16.1 mph - N/A   Overcast
7:55 PM 17.6 °F 2.7 °F 8.6 °F 68% 30.15 in 10.0 mi NNE 16.1 mph - N/A   Overcast
8:15 PM 17.6 °F 3.2 °F 10.4 °F 73% 30.16 in 10.0 mi NNE 15.0 mph - N/A   Overcast
8:55 PM 15.8 °F 1.4 °F 6.8 °F 68% 30.18 in 10.0 mi NNE 13.8 mph - N/A   Overcast
9:15 PM 15.8 °F -0.2 °F 6.8 °F 68% 30.18 in 10.0 mi NNE 17.3 mph - N/A   Overcast
9:35 PM 15.8 °F 0.3 °F 6.8 °F 68% 30.18 in 10.0 mi NNE 16.1 mph - N/A   Overcast
9:55 PM 15.8 °F 2.7 °F 6.8 °F 68% 30.18 in 10.0 mi NNE 11.5 mph - N/A   Overcast
10:15 PM 15.8 °F 0.3 °F 6.8 °F 68% 30.18 in 10.0 mi NNE 16.1 mph - N/A   Overcast
10:35 PM 15.8 °F 0.9 °F 5.0 °F 62% 30.17 in 10.0 mi NNE 15.0 mph - N/A   Scattered Clouds
10:55 PM 14.0 °F -0.2 °F 5.0 °F 67% 30.17 in 10.0 mi NNE 12.7 mph - N/A   Partly Cloudy
11:15 PM 14.0 °F -0.8 °F 3.2 °F 62% 30.16 in 10.0 mi NNE 13.8 mph - N/A   Clear
11:35 PM 14.0 °F 1.2 °F 3.2 °F 62% 30.16 in 10.0 mi NNE 10.4 mph - N/A   Clear
11:55 PM 12.2 °F 0.7 °F 5.0 °F 73% 30.15 in 10.0 mi North 8.1 mph - N/A   Partly Cloudy